Home > Time Zones > World Clock > Weather > India > Churu > Past weeks

Flag for India Weather past 2 weeks in Churu, Rajasthan, India

Now
88 °F

Scattered clouds.


Feels Like: 100 °F
Forecast: 81 / 94 °F
Wind: 7 mph from East

Location: Jaipur / Sanganer

Current Time: Aug 31, 2014 at 12:18:20 PM

Latest Report: Aug 31, 2014 at 11:00 AM


Visibility: 2 mi

Pressure: 29.65 "Hg

Humidity: 70%

Dew point: 77 °F

Location of ChuruLocation

Historic Weather in Churu — Graph

°F

Churu temperature yesterday

Maximum temperature yesterday: 88 °F (at 9:00 AM)
Minimum temperature yesterday: 75 °F (at 1:00 PM)
Average temperature yesterday: 80 °F

Past Weeks' High & Low Weather Summary

 TemperatureHumidityPressure
High100 °F (Aug 25, 3:00 PM)94% (Aug 30, 11:00 AM)30.01 "Hg (Aug 30, 11:00 AM)
Low75 °F (Aug 30, 1:00 PM)27% (Aug 25, 4:00 PM)29.59 "Hg (Aug 27, 5:00 PM)
Average87 °F59%29.73 "Hg
* Reported Aug 16 10:00 AM — Aug 31 10:00 AM, Churu, Weather by CustomWeather, © 2014

Note: Actual official high and low records may vary slightly from our data, if they occured in-between our weather recording intervals... More about our weather records

Advertising

Churu weather history for previous 24 hours

 ConditionsComfort  
Time TempWeatherWind HumidityBarometerVisibility
10:00 AM
Aug 31
86 °FHaze.10 mph75%29.65 "Hg2 mi
9:00 AM84 °FScattered clouds.8 mph79%29.65 "Hg2 mi
8:00 AM82 °FFog.8 mph84%29.65 "Hg2 mi
7:00 AM81 °FFog.3 mph84%29.65 "Hg2 mi
5:00 AM79 °FFog.No wind89%29.65 "Hg2 mi
4:00 AM81 °FFog.No wind89%29.65 "Hg2 mi
2:00 AM79 °FFog.No wind89%29.65 "Hg2 mi
1:00 AM79 °FFog.No wind89%29.65 "Hg2 mi
12:00 AM79 °FFog.No wind84%29.65 "Hg2 mi
11:00 PM
Aug 30
79 °FFog.No wind89%29.65 "Hg2 mi
10:00 PM79 °FFog.1 mph89%29.65 "Hg2 mi
9:00 PM77 °FFog.No wind89%29.65 "Hg2 mi
8:00 PM79 °FPartly cloudy.No wind89%29.62 "Hg2 mi
7:00 PM79 °FBroken clouds.1 mph84%29.62 "Hg2 mi
6:00 PM79 °FBroken clouds.1 mph84%29.62 "Hg2 mi
5:00 PM79 °FBroken clouds.5 mph84%29.62 "Hg2 mi
3:00 PM77 °FDrizzle. Broken clouds.8 mph89%29.65 "Hg1 mi
2:00 PM75 °FRain. More clouds than sun.8 mph94%29.71 "Hg1 mi
1:00 PM75 °FRain. More clouds than sun.8 mph94%29.71 "Hg1 mi
12:00 PM77 °FRain. More clouds than sun.6 mph94%29.74 "Hg1 mi
Weather by CustomWeather, © 2014

See weather overviewHow to use our weather pages